STARLINK-35512, 66330

Orbit data source: Space-Track

STARLINK-35512, 66330 is a payload satellite owned by SpaceX/Seattle (US) in LEO that was launched on Thu, 06 Nov 2025 UTC via an FALCON 9 launch vehicle from the Air Force Eastern Test Range (AFETR). Payload-class satellites include a variety of spacecraft equipped with specific instruments for various scientific and technological missions. These include communications satellites like Starlink; space stations such as the ISS; scientific satellites like the Hubble; Earth observation satellites from companies like Planet Labs, Umbra, and HawkEye 360; GPS; miniature CubeSats for education and research; and military/defense satellites.

Loading next visibility...
Identifier
66330, 2025-253M
Orbit
LEO
Country
Flag of USUS
Related business
Manufacturer
SpaceX/Seattle
Mission
Operational Commercial Communications
Bus & Motor
STARLINK V2MO, Unknown motor
Mass
575 kg wet, ~530 kg dry
Launch date (UTC)
2025-11-06 (7 months ago)
Launch vehicle
FALCON 9
Launch site
Air Force Eastern Test Range (AFETR)
Object type
Payload
Rocket body
Debris
Shape & HBR
Box + 2 Pan, 17.7 m
Radar Cross Section
36.964 m², Large (>1 m²)

Expand to show TLE details & history
Last TLE update: 16 hours ago

TLE from 16 hours ago
0 STARLINK-35512
1 66330U 25253M   26170.50520136  .00020184  00000-0  74149-3 0  9996
2 66330  43.0051 357.7006 0002422 255.5083 104.5500 15.27557454 35816
Epoch: 2026-06-19T12:07Z
TLE epoch observation values (Epoch: 2026-06-19T12:07:29.397Z)
Latitude
-0.00003°
Longitude
-91.90513°
Altitude
483.31 km
Speed
7.625 km/s
True Right ascension
23h 50m 48s
True Declination
0° 00' 00"
Sunlit
Object was in daylight at epoch
Visualization orbit readout
Latitude
Unknown
Longitude
Unknown
Altitude
Unknown
Speed
Unknown
Apparent Right ascension
Unknown
Apparent Declination
Unknown
Sunlit
N/A
Visualization observer readout
Local Sidereal Time
14:33:42
Azimuth
Unknown
Elevation
Unknown
Doppler factor
Unknown
Orbital elements
Apogee altitude
486.723 km
Perigee altitude
483.399 km
Semi-major axis
6,863.198 km
Eccentricity
0.00024
Inclination
43.0051°
RAAN
357.7006°
Arg. of periapsis
255.5083°
True anomaly
104.57686°
Mean anomaly
104.55°
Eccentric anomaly
104.56343°
Mean motion
3.81727 °/min
Orbital period
94.31 mins
BSTAR
0.00074149
Loading maneuver chart data...
Computing Atmospheric mass density...
Loading historical data...
Loading historical data...
Loading historical data...
Loading historical data...
Loading historical data...
Loading historical data...
Loading historical data...

Documentation

Showing up to 5 results
|